Location: Unspecified
(0.0000°N, 0.0000°E)
Time: 23:17:51
(UTC+02:00)

ARIANE DEB (SPELDA) - Visible Passes

Search period start: 02 September 2014 00:00
Search period end: 12 September 2014 00:00
Orbit: 331 x 33316 km, 3.4° (Epoch: 01 September)

Date Brightness Start Highest point End Pass type
(mag) Time Alt. Az. Time Alt. Az. Time Alt. Az.
02 Sep 4.8 13:27:48 10° W 22:19:21 78° N 22:21:16 64° ENE visible
04 Sep 6.5 04:02:50 12° E 04:02:50 12° E 04:03:44 10° E visible
04 Sep 5.2 14:33:28 10° W 23:12:17 55° WNW 20:10:43 10° W visible
06 Sep 5.2 04:53:48 40° E 04:53:48 40° E 05:06:31 10° E visible
06 Sep 6.4 23:55:34 10° W 00:03:11 23° W 00:03:11 23° W visible
08 Sep 4.1 08:24:03 10° E 05:45:13 88° S 14:28:53 10° E visible
09 Sep 6.2 11:17:52 10° W 20:11:26 85° N 20:25:41 10° E visible
10 Sep 4.9 06:35:18 30° W 06:40:12 85° S 15:32:44 10° E visible
11 Sep 5.4 12:14:58 10° W 21:09:32 81° N 21:16:45 26° E visible
